AVUM R/B, 53109

Orbit data source: Space-Track

AVUM R/B, 53109 is space debris originally from a launch on Wed, 13 Jul 2022 UTC launched from the French Guiana (FRGUI). Debris objects in space refer to the collection of defunct objects orbiting the Earth. Examples of debris include non-operational satellites, rocket bodies, and fragments generated from explosions, collisions, or faulty payload assembly.

Loading next visibility...
Identifier
53109, 2022-080E
Orbit
Active
Country
Flag of FRFR
Related business
Manufacturer
Avio
Mission
Operational spacecraft
Bus & Motor
AVUM, Unknown motor
Mass
Wet unknown, 660 kg dry
Launch date (UTC)
2022-07-13 (4 years ago)
Launch vehicle
Unknown
Launch site
French Guiana (FRGUI)
Object type
Payload
Rocket body
Debris
Shape & HBR
Cyl, 1.0 m
Radar Cross Section
2.198 m², Large (>1 m²)

Expand to show TLE details & history
Last TLE update: 1 day ago

TLE from 1 day ago
0 AVUM R/B
1 53109U 22080E   26143.90501805 -.00000003  00000-0  00000-0 0  9998
2 53109  70.1430 306.6926 0008874 295.4075  64.5666  6.42583311 90506
Epoch: 2026-05-23T21:43Z
TLE epoch observation values (Epoch: 2026-05-23T21:43:13.559Z)
Latitude
-0.00001°
Longitude
99.37129°
Altitude
5,839.847 km
Speed
5.713 km/s
True Right ascension
20h 26m 46s
True Declination
0° 00' 00"
Sunlit
Object was in daylight at epoch
Visualization orbit readout
Latitude
Unknown
Longitude
Unknown
Altitude
Unknown
Speed
Unknown
Apparent Right ascension
Unknown
Apparent Declination
Unknown
Sunlit
N/A
Visualization observer readout
Local Sidereal Time
14:34:05
Azimuth
Unknown
Elevation
Unknown
Doppler factor
Unknown
Orbital elements
Apogee altitude
5,852.784 km
Perigee altitude
5,831.096 km
Semi-major axis
12,220.077 km
Eccentricity
0.00089
Inclination
70.143°
RAAN
306.6926°
Arg. of periapsis
295.4075°
True anomaly
64.65848°
Mean anomaly
64.5666°
Eccentric anomaly
64.61253°
Mean motion
1.60669 °/min
Orbital period
224.06 mins
BSTAR
0
Loading maneuver chart data...
Computing Atmospheric mass density...
Loading historical data...
Loading historical data...
Loading historical data...
Loading historical data...
Loading historical data...
Loading historical data...
Loading historical data...

Documentation

Showing up to 5 results
|